EW5261 Weather Reports


time (UTC)temp
C
wind
direction
speed
KPH
gust
KPH
rain 1hr
cm
rain 24hr
cm
rain mn
cm
humidity
%
barometer
mb
20240420174558 26 0 0.0 0.0 0.00 0.00 0.00 100 1015.7
20240420173920 26 250 0.0 0.0 0.00 0.00 0.00 100 1014.6
20240420173039 26 250 0.0 1.6 0.00 0.00 0.00 100 1015.8
20240420172930 26 250 0.0 0.0 0.00 0.00 0.00 100 1014.7
20240420171857 26 250 0.0 0.0 0.00 0.00 0.00 100 1014.7
20240420171534 26 0 0.0 1.6 0.00 0.00 0.00 100 1016.0
20240420170941 26 250 0.0 0.0 0.00 0.00 0.00 100 1014.8
20240420170030 26 0 0.0 4.8 0.00 0.00 0.00 100 1016.1
20240420164533 26 0 0.0 4.8 0.00 0.00 0.00 100 1016.1
20240420163654 27 250 0.0 3.2 0.00 0.00 0.00 100 1014.9
20240420163032 26 250 0.0 4.8 0.00 0.00 0.00 100 1016.1
20240420162704 26 250 0.0 3.2 0.00 0.00 0.00 100 1015.0
20240420161727 26 250 0.0 3.2 0.00 0.00 0.00 100 1015.0
20240420161546 26 250 0.0 4.8 0.00 0.00 0.00 100 1016.2
20240420160733 26 250 0.0 1.6 0.00 0.00 0.00 100 1015.1
20240420160030 25 250 0.0 3.2 0.00 0.00 0.00 100 1016.4
20240420154653 26 250 0.0 8.0 0.00 0.00 0.00 100 1015.3
20240420154537 25 250 0.0 4.8 0.00 0.00 0.00 100 1016.5
20240420153644 25 250 0.0 3.2 0.00 0.00 0.00 100 1015.3
20240420153028 25 250 0.0 4.8 0.00 0.00 0.00 100 1016.5
20240420152622 25 250 0.0 4.8 0.00 0.00 0.00 100 1015.3
20240420151630 25 250 0.0 4.8 0.00 0.00 0.00 100 1015.5
20240420151533 25 0 1.6 4.8 0.00 0.00 0.00 100 1016.7
20240420150632 25 250 0.0 4.8 0.00 0.00 0.00 100 1015.5
20240420150039 25 0 0.0 6.4 0.00 0.00 0.00 100 1016.5
20240420144534 25 0 0.0 6.4 0.00 0.00 0.00 100 1016.6
20240420144442 25 250 0.0 6.4 0.00 0.00 0.00 100 1015.4
20240420143437 25 250 0.0 6.4 0.00 0.00 0.00 100 1015.4
20240420143028 25 0 3.2 8.0 0.00 0.00 0.00 100 1016.5
20240420141532 23 251 1.6 4.8 0.00 0.00 0.00 100 1016.5
20240420141353 24 251 0.0 3.2 0.00 0.00 0.00 100 1015.4
20240420140327 23 251 0.0 0.0 0.00 0.00 0.00 100 1015.4
20240420140036 23 0 0.0 1.6 0.00 0.00 0.00 100 1016.5
20240420135340 23 251 0.0 0.0 0.00 0.00 0.00 100 1015.6
20240420134532 23 0 0.0 3.2 0.00 0.00 0.00 100 1016.8
20240420133035 22 251 0.0 6.4 0.00 0.00 0.00 100 1016.7
20240420131529 22 251 0.0 3.2 0.00 0.00 0.00 100 1016.5
20240420130031 22 0 0.0 1.6 0.00 0.00 0.00 100 1016.6
20240420124552 22 0 0.0 1.6 0.00 0.00 0.00 100 1016.7
20240420123053 21 0 0.0 0.0 0.00 0.00 0.00 100 1016.7
20240420121544 21 0 0.0 0.0 0.00 0.00 0.00 100 1016.5
20240420120035 21 0 0.0 0.0 0.00 0.00 0.00 100 1016.4
20240420114538 21 0 0.0 0.0 0.00 0.00 0.00 100 1016.3
20240420113031 21 0 0.0 0.0 0.00 0.00 0.00 100 1016.2
20240420111534 21 0 0.0 0.0 0.00 0.00 0.00 100 1016.1
20240420110032 21 0 0.0 0.0 0.00 0.00 0.00 100 1016.3
20240420104543 21 0 0.0 0.0 0.00 0.00 0.00 100 1016.2
20240420103031 21 0 0.0 1.6 0.00 0.00 0.00 100 1016.1
20240420101532 21 0 0.0 0.0 0.00 0.00 0.00 100 1016.0
20240420100033 21 0 0.0 0.0 0.00 0.00 0.00 100 1016.2
20240420094530 21 0 0.0 0.0 0.00 0.00 0.00 100 1016.4
20240420093030 21 0 0.0 0.0 0.00 0.00 0.00 100 1016.7
20240420091537 21 0 0.0 0.0 0.00 0.00 0.00 100 1016.5
20240420090031 21 0 0.0 0.0 0.00 0.00 0.00 100 1016.6
20240420084559 21 0 0.0 0.0 0.00 0.00 0.00 100 1016.9
20240420083036 21 0 0.0 0.0 0.00 0.00 0.00 100 1016.7
20240420081534 21 0 0.0 0.0 0.00 0.00 0.00 100 1016.8
20240420080038 21 0 0.0 1.6 0.00 0.00 0.00 100 1016.5
20240420074542 22 0 0.0 0.0 0.00 0.00 0.00 100 1016.7
20240420073033 22 0 0.0 0.0 0.00 0.00 0.00 100 1016.7
20240420071533 22 0 0.0 1.6 0.00 0.00 0.00 100 1016.6
20240420070044 22 0 0.0 1.6 0.00 0.00 0.00 100 1016.6
20240420064540 22 0 0.0 1.6 0.00 0.00 0.00 100 1016.7
20240420063047 22 251 0.0 4.8 0.00 0.00 0.00 100 1016.8
20240420061534 23 0 0.0 3.2 0.00 0.00 0.00 100 1017.2
20240420060041 23 251 0.0 6.4 0.00 0.00 0.00 100 1017.0
20240420054533 22 251 0.0 4.8 0.00 0.00 0.00 100 1017.0
20240420053033 22 0 0.0 0.0 0.00 0.00 0.00 100 1017.2
20240420051534 22 251 0.0 3.2 0.00 0.00 0.00 100 1017.0
20240420050046 23 0 0.0 1.6 0.00 0.00 0.00 100 1017.0
20240420044545 23 0 0.0 3.2 0.00 0.00 0.00 100 1016.8
20240420043034 23 0 0.0 3.2 0.00 0.00 0.00 100 1016.8
20240420041555 23 0 0.0 6.4 0.00 0.00 0.00 100 1016.6
20240420040041 23 0 1.6 8.0 0.00 0.00 0.00 100 1016.4
20240420034531 23 251 0.0 3.2 0.00 0.00 0.00 100 1016.4
20240420033035 23 0 1.6 6.4 0.00 0.00 0.00 100 1016.4
20240420031551 23 251 0.0 3.2 0.00 0.00 0.00 100 1016.4
20240420030030 23 251 0.0 4.8 0.00 0.00 0.00 100 1016.3
20240420024538 23 251 0.0 6.4 0.00 0.00 0.00 100 1016.1
20240420023030 24 251 1.6 6.4 0.00 0.00 0.00 100 1016.1
20240420021538 24 251 1.6 6.4 0.00 0.00 0.00 100 1015.8
20240420020048 24 251 1.6 6.4 0.00 0.00 0.00 100 1015.5
20240420014534 25 251 0.0 6.4 0.00 0.00 0.00 100 1015.2
20240420013034 25 0 0.0 8.0 0.00 0.00 0.00 100 1014.8
20240420011537 25 251 3.2 11.3 0.00 0.00 0.00 100 1014.6
20240420010034 26 251 3.2 8.0 0.00 0.00 0.00 100 1015.0
20240420004535 26 251 0.0 8.0 0.00 0.00 0.00 100 1015.1
20240420003038 26 251 0.0 3.2 0.00 0.00 0.00 100 1014.9
20240420001539 26 251 1.6 6.4 0.00 0.00 0.00 100 1014.7
20240420000034 26 0 0.0 3.2 0.00 0.00 0.00 100 1014.4
20240419234531 26 0 0.0 0.0 0.00 0.00 0.00 100 1014.7
20240419233032 26 0 0.0 0.0 0.00 0.00 0.00 100 1014.7
20240419231535 26 252 0.0 1.6 0.00 0.00 0.00 100 1014.9
20240419230053 27 0 0.0 0.0 0.00 0.00 0.00 100 1015.0
20240419224534 27 0 0.0 1.6 0.00 0.00 0.00 100 1015.0
20240419223034 26 0 0.0 0.0 0.00 0.00 0.00 100 1014.8
20240419221530 26 0 0.0 0.0 0.00 0.00 0.00 100 1014.9
20240419220036 27 0 0.0 0.0 0.00 0.00 0.00 100 1014.8
20240419214533 27 0 0.0 1.6 0.00 0.00 0.00 100 1015.0
20240419213034 28 0 0.0 1.6 0.00 0.00 0.00 100 1014.9
20240419211538 28 252 0.0 1.6 0.00 0.00 0.00 100 1015.0
20240419210059 28 0 0.0 1.6 0.00 0.00 0.00 100 1015.1
20240419204535 29 0 0.0 3.2 0.00 0.00 0.00 100 1015.1
20240419203033 29 0 0.0 1.6 0.00 0.00 0.00 100 1015.2
20240419201535 28 0 0.0 4.8 0.00 0.00 0.00 100 1015.5
20240419200031 28 252 1.6 9.7 0.00 0.00 0.00 100 1015.7
20240419194530 28 252 0.0 3.2 0.00 0.00 0.00 100 1015.8
20240419193028 28 0 0.0 4.8 0.00 0.00 0.00 100 1016.0
20240419191543 28 0 0.0 4.8 0.00 0.00 0.00 100 1016.0
20240419190033 28 0 0.0 1.6 0.00 0.00 0.00 100 1016.2
20240419184529 28 0 0.0 1.6 0.00 0.00 0.00 100 1016.1
20240419183036 28 252 0.0 1.6 0.00 0.00 0.00 100 1016.1
20240419181530 28 252 0.0 3.2 0.00 0.00 0.00 100 1016.3
20240419180031 29 0 0.0 1.6 0.00 0.00 0.00 100 1016.4